Showing default

OUTPOST MISSION 1, 56226

Orbit data source: Space-Track

OUTPOST MISSION 1, 56226 is a payload satellite owned by Outpost Tech (US) in SSO that was launched on Mon, 12 Jun 2023 UTC via an FALCON 9 launch vehicle from the Air Force Western Test Range (AFWTR). Payload-class satellites include a variety of spacecraft equipped with specific instruments for various scientific and technological missions. These include communications satellites like Starlink; space stations such as the ISS; scientific satellites like the Hubble; Earth observation satellites from companies like Planet Labs, Umbra, and HawkEye 360; GPS; miniature CubeSats for education and research; and military/defense satellites.

Not visible in the next 10 days
Identifier
56226, 2023-084BK
Orbit
SSO
Country
Flag of USUS
Related business
Manufacturer
Outpost Tech
Mission
Operational Commercial Technology
Bus & Motor
CUBESAT 3U, Unknown motor
Mass
3 kg wet, 3 kg dry
Launch date (UTC)
2023-06-12 (3 years ago)
Launch vehicle
FALCON 9
Launch site
Air Force Western Test Range (AFWTR)
Object type
Payload
Rocket body
Debris
Shape & HBR
Box, 0.1 m
Radar Cross Section
0.035 m², Medium (>0.1 m² and < 1m²)

Expand to show TLE details & history
Last TLE update: 1 week ago

TLE from 1 week ago
0 OUTPOST MISSION 1
1 56226U 23084BK  26154.43874882  .00318104  41953-4  81566-3 0  9992
2 56226  97.6016 316.4625 0005754 258.6855 101.3773 15.95249289166828
Epoch: 2026-06-03T10:31Z
TLE epoch observation values (Epoch: 2026-06-03T10:31:47.898Z)
Latitude
-0.00006°
Longitude
-93.38442°
Altitude
291.565 km
Speed
7.732 km/s
True Right ascension
21h 05m 51s
True Declination
0° 00' 00"
Sunlit
Object was in full shadow at epoch
Visualization orbit readout
Latitude
Unknown
Longitude
Unknown
Altitude
Unknown
Speed
Unknown
Apparent Right ascension
Unknown
Apparent Declination
Unknown
Sunlit
N/A
Visualization observer readout
Local Sidereal Time
15:02:33
Azimuth
Unknown
Elevation
Unknown
Doppler factor
Unknown
Orbital elements
Apogee altitude
288.329 km
Perigee altitude
280.661 km
Semi-major axis
6,662.632 km
Eccentricity
0.00058
Inclination
97.6016°
RAAN
316.4625°
Arg. of periapsis
258.6855°
True anomaly
101.44193°
Mean anomaly
101.3773°
Eccentric anomaly
101.40962°
Mean motion
3.99093 °/min
Orbital period
90.2 mins
BSTAR
0.00081566
Loading maneuver chart data...
Computing Atmospheric mass density...
Loading historical data...
Loading historical data...
Loading historical data...
Loading historical data...
Loading historical data...
Loading historical data...
Loading historical data...

Documentation

Showing up to 5 results
|